Zurück zum Katalog

STARLINK-30712

AktivKommunikationVLEO
NORAD 57935·PAYLOAD·🇺🇸 United States

Gestartet Sep 25, 2023 von Vandenberg Space Force Base

Loading…

Nächste Überflüge (nächste 24 Stunden)

TLE

AktuellSource: CelesTrak SupGP

Epoche: Sep 14, 2026, 20:51 UTC

1 57935C 23148A   26257.86923611  .00038096  00000+0  11254-2 0  2572
2 57935  53.1582 221.8238 0001421  96.4405 116.4129 15.34375491    14

Verfolge STARLINK-30712 in Echtzeit mit AllMySat

Download on the App Store